DTR15Z ENBR-ENAL

Flight info

Callsign DTR15Z
Flight time N/A
Altitude 15000
Route OLDAS DCT TUMIM
Aircraft AT76/M-SDFGIRY/S

Departure

Time 2026-05-05 19:38
Airport Bergen Airport, Flesland (ENBR)

Arrival

Time N/A
Airport Ålesund Airport (ENAL)
Time Latitude Longitude Altitude Speed Heading
2026-05-05 19:05 60.29088 5.22725 171 ft 0 kts 359°
2026-05-05 19:31 60.29090 5.22725 171 ft 1 kts
2026-05-05 19:31 60.29094 5.22736 172 ft 2 kts 54°
2026-05-05 19:32 60.29076 5.22747 149 ft 7 kts 199°
2026-05-05 19:32 60.29047 5.22660 170 ft 9 kts 261°
2026-05-05 19:32 60.29038 5.22539 170 ft 9 kts 262°
2026-05-05 19:32 60.29025 5.22414 170 ft 8 kts 240°
2026-05-05 19:33 60.28961 5.22386 170 ft 12 kts 172°
2026-05-05 19:33 60.28931 5.22318 170 ft 8 kts 258°
2026-05-05 19:33 60.28920 5.22186 170 ft 9 kts 261°
2026-05-05 19:33 60.28918 5.22162 170 ft 0 kts 260°
2026-05-05 19:36 60.28918 5.22160 170 ft 1 kts 260°
2026-05-05 19:36 60.28915 5.22125 170 ft 6 kts 260°
2026-05-05 19:36 60.28905 5.21985 170 ft 8 kts 276°
2026-05-05 19:37 60.28928 5.21958 171 ft 0 kts 351°
2026-05-05 19:37 60.28929 5.21957 171 ft 5 kts 351°
2026-05-05 19:37 60.29188 5.21870 173 ft 69 kts 350°
2026-05-05 19:37 60.29847 5.21648 172 ft 120 kts 351°
2026-05-05 19:38 60.30765 5.21370 392 ft 138 kts 351°
2026-05-05 19:38 60.31694 5.21126 1101 ft 130 kts 352°
2026-05-05 19:38 60.32587 5.20821 1563 ft 143 kts 348°
2026-05-05 19:38 60.33670 5.20345 1789 ft 160 kts 347°
2026-05-05 19:39 60.34810 5.19865 2223 ft 167 kts 347°
2026-05-05 19:39 60.35936 5.19435 2865 ft 163 kts 350°
2026-05-05 19:39 60.37040 5.19089 3392 ft 163 kts 351°
2026-05-05 19:39 60.38170 5.18742 3792 ft 164 kts 350°
2026-05-05 19:40 60.39302 5.18375 4202 ft 165 kts 349°
2026-05-05 19:40 60.40402 5.18010 4588 ft 165 kts 349°
2026-05-05 19:40 60.40825 5.17867 4731 ft 166 kts 349°
2026-05-05 19:40 60.42537 5.17295 5338 ft 166 kts 349°
2026-05-05 19:41 60.43678 5.16910 5752 ft 166 kts 349°
2026-05-05 19:41 60.44433 5.16655 6021 ft 167 kts 348°